This is the latest recevied weather packets stored in our database for station/object KJ5JYX. If no packets are shown the sender has not sent any weather packets the latest 10 day(s).
| Time | Temp. | Humidity | Pressure | Rain* | Wind** | Luminosity | Snow |
|---|---|---|---|---|---|---|---|
| 1777648912 | 13.89° C | 99% | 1014.8 hPa | 0 mm | - | 116 W/m² | - |
| 1777648610 | 13.89° C | 99% | 1014.5 hPa | 0 mm | - | 108 W/m² | - |
| 1777648306 | 13.89° C | 99% | 1015.1 hPa | 0 mm | - | 94 W/m² | - |
| 1777648003 | 13.89° C | 99% | 1014.9 hPa | 0 mm | - | 122 W/m² | - |
| 1777647699 | 13.89° C | 99% | 1014.7 hPa | 0 mm | - | 101 W/m² | - |
| 1777647395 | 13.89° C | 99% | 1015 hPa | 0 mm | - | 116 W/m² | - |
| 1777647093 | 13.89° C | 99% | 1014.7 hPa | 0 mm | - | 93 W/m² | - |
| 1777646789 | 13.89° C | 99% | 1014.6 hPa | 0 mm | - | 121 W/m² | - |
| 1777646490 | 13.89° C | 99% | 1014.4 hPa | 1.27 mm | - | 82 W/m² | - |
| 1777646186 | 13.89° C | 99% | 1014.8 hPa | 1.27 mm | - | 78 W/m² | - |
| 1777645884 | 13.89° C | 99% | 1014.8 hPa | 3.05 mm | - | 60 W/m² | - |
| 1777645581 | 13.89° C | 99% | 1014.7 hPa | 1.78 mm | - | 47 W/m² | - |
| 1777645277 | 13.89° C | 99% | 1015.3 hPa | 1.27 mm | - | 36 W/m² | - |
| 1777644973 | 13.89° C | 99% | 1015.6 hPa | 1.27 mm | - | 36 W/m² | - |
| 1777644671 | 13.89° C | 99% | 1014.7 hPa | 1.27 mm | - | 32 W/m² | - |
| 1777644366 | 13.89° C | 99% | 1013.9 hPa | 0 mm | - | 27 W/m² | - |
| 1777644063 | 13.89° C | 99% | 1013.8 hPa | 1.78 mm | - | 34 W/m² | - |
| 1777643760 | 13.89° C | 99% | 1014.8 hPa | 1.78 mm | - | 27 W/m² | - |
| 1777643457 | 13.89° C | 99% | 1014.9 hPa | 3.05 mm | - | 36 W/m² | - |
| 1777643154 | 13.89° C | 99% | 1014.9 hPa | 6.1 mm | - | 41 W/m² | - |
| 1777642850 | 13.89° C | 99% | 1014.5 hPa | 6.1 mm | - | 27 W/m² | - |
| 1777642548 | 14.44° C | 99% | 1014.7 hPa | 8.89 mm | - | 15 W/m² | - |
| 1777642244 | 14.44° C | 99% | 1015.5 hPa | 8.89 mm | - | 8 W/m² | - |
| 1777641942 | 14.44° C | 99% | 1015.7 hPa | 6.1 mm | - | 9 W/m² | - |
| 1777641637 | 14.44° C | 99% | 1016.7 hPa | 6.1 mm | - | 5 W/m² | - |
* Rain latest hour (hover to see other rain measurements)
** Current wind speed in m/s (hover to see current wind gust speed)